Dati Storici

Data ora Umidita' aria (%) Temperatura aria (°C) Rad globale (W/m²) Gonioanemometro (°) Tacoanemometro (m/s) Pioggia (mm)
14-06-2020 02:10 97.7 % 17.206 -68.537 0.224 0 0
14-06-2020 02:00 97.7 % 17.104 -62.533 1.515 0 0
14-06-2020 01:50 97.6 % 17.326 -65.803 0.567 0 0
14-06-2020 01:40 93.6 % 17.451 -55.324 0.003 0 0
14-06-2020 01:30 92.4 % 17.637 -40.015 0.003 0 0
14-06-2020 01:20 92.7 % 17.624 -48.973 1.649 0 0
14-06-2020 01:10 92.3 % 17.566 -45.15 0.505 0 0
14-06-2020 01:00 91.9 % 17.565 -45.983 0.001 0 0
14-06-2020 00:50 91.4 % 17.528 -45.682 1.526 0 0
14-06-2020 00:40 90.2 % 17.545 -60.995 2.058 0 0
14-06-2020 00:30 89 % 17.808 -35.452 1.61 0 0
14-06-2020 00:20 88.7 % 17.935 -51.5 1.843 0 0
14-06-2020 00:10 87.8 % 17.968 -30.176 3.032 0 0
14-06-2020 00:00 87.6 % 18.036 -33.046 2.127 0 0
13-06-2020 23:50 89.3 % 18.204 -51.264 1.595 0 0
13-06-2020 23:40 92.6 % 18.214 -48.204 1.224 0 0
13-06-2020 23:30 95.5 % 18.068 -43.454 2.524 0 0
13-06-2020 23:20 96.5 % 17.867 -49.705 1.071 0 0
13-06-2020 23:10 96.1 % 17.819 -50.5 4.494 0 0
13-06-2020 23:00 97.6 % 17.695 -50.384 4.285 0 0

I dati sono presentati in modo automatico a scopo informativo. In seguito a verifica i dati possono subire modifiche o essere invalidati e non riportati negli archivi definitivi.